N5SNT-2 Weather Reports


Display with metric or nautical units.
time (UTC)temp
F
wind
direction
speed
MPH
gust
MPH
rain 1hr
in
rain 24hr
in
rain mn
in
humidity
%
barometer
mb
20210120162136 49 323 2.0 3.0 0.00 0.09 0.00 89 1028.3
20210120161121 49 23 3.0 3.0 0.00 0.09 0.00 88 1028.4
20210120160130 49 48 2.0 3.0 0.00 0.09 0.00 89 1028.2
20210120155133 49 33 2.0 2.0 0.00 0.09 0.00 89 1028.1
20210120154136 49 50 3.0 6.0 0.00 0.09 0.00 88 1027.8
20210120153135 49 20 3.0 6.0 0.00 0.09 0.00 88 1028.0
20210120152130 49 9 2.0 3.0 0.00 0.09 0.00 89 1027.9
20210120151121 48 41 1.0 1.0 0.00 0.09 0.00 89 1027.9
20210120150130 48 34 2.0 5.0 0.00 0.09 0.00 89 1028.0
20210120145139 48 32 2.0 2.0 0.00 0.09 0.00 89 1027.9
20210120144133 48 36 1.0 2.0 0.00 0.09 0.00 89 1027.9
20210120143121 48 36 2.0 3.0 0.00 0.09 0.00 89 1028.2
20210120142130 48 25 3.0 7.0 0.00 0.10 0.00 89 1028.0
20210120141122 48 28 1.0 2.0 0.00 0.10 0.00 90 1028.1
20210120140141 48 359 2.0 3.0 0.00 0.10 0.00 90 1028.1
20210120135126 48 33 2.0 2.0 0.00 0.10 0.00 90 1027.7
20210120134130 48 36 3.0 6.0 0.00 0.10 0.00 90 1027.8
20210120133139 48 350 2.0 3.0 0.00 0.10 0.00 90 1027.7
20210120132137 48 351 2.0 3.0 0.00 0.10 0.00 89 1027.9
20210120131125 48 19 2.0 3.0 0.00 0.10 0.00 88 1027.7
20210120130136 48 18 3.0 5.0 0.00 0.10 0.00 88 1027.9
20210120125132 48 12 2.0 3.0 0.00 0.10 0.00 87 1028.1
20210120124130 48 59 2.0 5.0 0.00 0.10 0.00 87 1027.8
20210120123123 48 38 3.0 5.0 0.00 0.10 0.00 87 1027.6
20210120122131 48 342 3.0 5.0 0.00 0.10 0.00 87 1027.4
20210120121125 48 16 3.0 5.0 0.00 0.10 0.00 87 1027.3
20210120120135 48 37 2.0 3.0 0.00 0.10 0.00 87 1027.7
20210120115133 48 46 1.0 1.0 0.00 0.10 0.00 87 1027.7
20210120114130 48 16 3.0 3.0 0.00 0.10 0.00 87 1027.5
20210120113122 48 45 3.0 3.0 0.00 0.10 0.00 87 1027.6
20210120112132 49 24 3.0 5.0 0.00 0.10 0.00 87 1027.5
20210120111135 49 45 3.0 5.0 0.00 0.10 0.00 87 1027.6
20210120110139 49 4 2.0 3.0 0.00 0.10 0.00 87 1027.4
20210120105122 49 29 4.0 7.0 0.00 0.10 0.00 87 1027.7
20210120104134 49 42 2.0 3.0 0.00 0.10 0.00 88 1027.7
20210120103134 49 24 3.0 5.0 0.00 0.10 0.00 88 1027.4
20210120102131 49 44 3.0 6.0 0.00 0.10 0.00 88 1027.9
20210120101133 49 62 1.0 3.0 0.00 0.10 0.00 88 1028.4
20210120100130 49 47 2.0 5.0 0.00 0.10 0.00 88 1028.4
20210120095125 49 20 3.0 5.0 0.00 0.10 0.00 88 1028.2
20210120094136 49 347 3.0 6.0 0.00 0.10 0.00 88 1027.9
20210120093123 49 34 2.0 3.0 0.00 0.10 0.00 88 1028.1
20210120092131 49 343 2.0 3.0 0.00 0.10 0.00 88 1028.7
20210120091122 48 353 1.0 1.0 0.00 0.10 0.00 88 1028.7
20210120090131 48 53 2.0 5.0 0.00 0.10 0.00 88 1028.4
20210120085218 48 17 3.0 6.0 0.00 0.10 0.00 88 1028.6
20210120084137 48 90 2.0 5.0 0.00 0.10 0.00 88 1028.4
20210120083133 48 16 2.0 3.0 0.00 0.10 0.00 88 1028.5
20210120082135 48 11 1.0 2.0 0.00 0.10 0.00 88 1028.8
20210120081122 48 39 1.0 2.0 0.00 0.10 0.00 88 1029.1
20210120080131 48 35 4.0 6.0 0.00 0.10 0.00 88 1028.9
20210120075126 49 51 3.0 5.0 0.00 0.10 0.00 87 1028.8
20210120074132 49 358 3.0 3.0 0.00 0.10 0.00 87 1028.4
20210120073143 49 72 4.0 6.0 0.00 0.10 0.00 86 1028.6
20210120072136 49 9 2.0 5.0 0.00 0.10 0.00 86 1028.7
20210120071124 49 46 3.0 5.0 0.00 0.10 0.00 85 1028.9
20210120070130 49 38 4.0 7.0 0.00 0.10 0.00 84 1028.9
20210120065122 49 23 4.0 6.0 0.00 0.10 0.00 84 1028.9
20210120064131 49 353 3.0 3.0 0.00 0.10 0.00 84 1028.9
20210120063124 49 44 3.0 5.0 0.00 0.10 0.00 84 1028.9
20210120062130 49 321 4.0 9.0 0.00 0.10 0.00 84 1029.0
20210120061122 49 54 3.0 3.0 0.00 0.10 0.00 84 1028.9
20210120060136 49 22 4.0 5.0 0.00 0.10 0.00 83 1029.1
20210120055133 49 26 2.0 6.0 0.00 0.10 0.10 83 1029.1
20210120054137 49 17 2.0 2.0 0.00 0.10 0.10 83 1029.2
20210120053124 49 46 2.0 3.0 0.00 0.10 0.10 82 1029.3
20210120052130 49 21 3.0 5.0 0.00 0.10 0.10 82 1029.1
20210120051122 49 35 2.0 2.0 0.00 0.10 0.10 82 1029.3
20210120050136 49 34 3.0 3.0 0.00 0.10 0.10 82 1029.3
20210120045122 49 22 4.0 8.0 0.00 0.10 0.10 83 1029.7
20210120044130 49 353 6.0 9.0 0.00 0.10 0.10 83 1029.5
20210120043133 49 23 4.0 6.0 0.00 0.10 0.10 84 1029.6
20210120042139 49 23 2.0 3.0 0.00 0.10 0.10 84 1029.8
20210120041124 49 350 4.0 7.0 0.00 0.10 0.10 84 1029.5
20210120040148 49 36 2.0 3.0 0.00 0.10 0.10 85 1029.7
20210120035134 49 54 3.0 6.0 0.00 0.10 0.10 85 1029.3
20210120034131 49 35 5.0 7.0 0.00 0.10 0.10 86 1029.5
20210120033138 49 45 2.0 3.0 0.00 0.10 0.10 86 1029.0
20210120032137 49 305 3.0 7.0 0.00 0.10 0.10 87 1029.1
20210120031122 50 343 3.0 5.0 0.00 0.10 0.10 87 1029.0
20210120030135 49 18 3.0 5.0 0.00 0.10 0.10 88 1028.4
20210120025136 49 103 1.0 1.0 0.00 0.10 0.10 90 1028.7
20210120024131 49 60 3.0 5.0 0.00 0.10 0.10 92 1028.3
20210120023135 49 20 2.0 3.0 0.00 0.10 0.10 92 1028.6
20210120022136 50 62 2.0 3.0 0.00 0.10 0.10 93 1028.4
20210120021133 50 17 4.0 6.0 0.00 0.10 0.10 93 1028.8
20210120020147 50 332 3.0 5.0 0.01 0.10 0.10 94 1028.4
20210120015124 50 31 5.0 9.0 0.01 0.10 0.10 94 1028.5
20210120014131 50 19 3.0 6.0 0.01 0.10 0.10 94 1028.4
20210120013122 50 27 1.0 3.0 0.01 0.10 0.10 94 1028.2
20210120012131 50 19 3.0 6.0 0.02 0.10 0.10 94 1028.1
20210120011123 51 27 3.0 6.0 0.02 0.10 0.10 94 1028.0
20210120010131 51 2 3.0 5.0 0.01 0.09 0.09 94 1027.8
20210120005122 52 31 2.0 5.0 0.01 0.09 0.09 94 1027.5
20210120004130 52 15 5.0 7.0 0.01 0.09 0.09 94 1027.3
20210120003126 53 64 2.0 2.0 0.01 0.09 0.09 93 1027.1
20210120002132 53 357 3.0 3.0 0.00 0.08 0.08 93 1026.9
20210120001134 53 0 4.0 6.0 0.00 0.08 0.08 93 1026.9
20210120000133 54 16 3.0 5.0 0.00 0.08 0.08 94 1026.6
20210119235124 54 22 2.0 2.0 0.01 0.08 0.08 94 1026.4
20210119234131 55 322 5.0 8.0 0.01 0.08 0.08 93 1026.3
20210119233136 55 38 3.0 3.0 0.01 0.08 0.08 93 1026.0
20210119232130 55 32 1.0 1.0 0.01 0.08 0.08 93 1025.6
20210119231133 56 29 3.0 6.0 0.01 0.08 0.08 93 1025.4
20210119230130 57 22 3.0 3.0 0.01 0.08 0.08 92 1025.3
20210119225122 57 28 3.0 5.0 0.00 0.07 0.07 91 1025.0
20210119224138 58 16 4.0 5.0 0.00 0.07 0.07 91 1025.0
20210119223138 59 81 5.0 6.0 0.00 0.07 0.07 90 1024.6
20210119222139 59 301 2.0 5.0 0.00 0.07 0.07 90 1024.7
20210119221137 61 60 3.0 3.0 0.00 0.07 0.07 89 1024.2
20210119220136 68 18 3.0 5.0 0.00 0.07 0.07 84 1024.0
20210119215133 70 347 2.0 5.0 0.00 0.07 0.07 84 1023.4
20210119214433 70 47 0.0 1.0 0.00 0.07 0.07 85 1022.9
20210119213125 0 0.0 0.0 0.00 0.07 0.07 1022.8
20210119212137 70 86 2.0 2.0 0.00 0.07 0.07 86 1022.7
20210119211134 0 0.0 0.0 0.06 0.07 0.07 1022.7
20210119210139 0 0.0 0.0 0.06 0.07 0.07 1022.8
20210119204833 69 51 1.0 2.0 0.06 0.07 0.07 93 1022.6
20210119203819 68 82 1.0 2.0 0.06 0.07 0.07 93 1022.6
20210119202827 68 53 1.0 1.0 0.06 0.07 0.07 92 1022.7
20210119201822 69 93 2.0 2.0 0.06 0.07 0.07 89 1022.7
20210119200833 71 91 1.0 1.0 0.00 0.01 0.01 80 1022.9
20210119195841 71 111 1.0 2.0 0.00 0.01 0.01 80 1022.7
20210119194833 71 93 2.0 3.0 0.00 0.01 0.01 80 1022.6
20210119193841 70 106 4.0 6.0 0.00 0.01 0.01 81 1023.0
20210119192833 71 103 3.0 5.0 0.00 0.01 0.01 81 1023.0
20210119191841 71 105 7.0 9.0 0.00 0.01 0.01 80 1023.0
20210119190641 71 119 6.0 7.0 0.00 0.01 0.01 82 1023.3
20210119185634 0 0.0 0.0 0.00 0.01 0.01 1023.1
20210119184333 71 112 4.0 5.0 0.00 0.01 0.01 79 1023.2
20210119183337 0 0.0 0.0 0.00 0.01 0.01 1023.2
20210119182335 70 116 5.0 6.0 0.00 0.01 0.01 81 1023.0
20210119181336 0 0.0 0.0 0.00 0.01 0.01 1023.0
20210119180139 70 104 4.0 6.0 0.00 0.01 0.01 83 1023.3
20210119175136 70 74 5.0 6.0 0.00 0.01 0.01 83 1023.2
20210119174138 70 111 7.0 9.0 0.00 0.01 0.01 83 1023.2
20210119173133 69 113 6.0 8.0 0.00 0.01 0.01 85 1023.4
20210119172131 69 139 3.0 5.0 0.00 0.01 0.01 85 1023.5
20210119171133 69 100 5.0 6.0 0.00 0.01 0.01 86 1023.6
20210119170131 69 124 7.0 11.0 0.00 0.01 0.01 86 1023.6
20210119165123 68 113 4.0 10.0 0.00 0.01 0.01 89 1023.6
20210119164137 67 100 3.0 7.0 0.00 0.01 0.01 91 1023.6
20210119163124 66 115 2.0 5.0 0.00 0.01 0.01 94 1023.4